Location: Lancaster
(54.0470°N, 2.8020°W)
Time: 02:27:45
(UTC+01:00)

COSMOS 2428 - Visible Passes

Search period start: 30 April 2016 00:00
Search period end: 10 May 2016 00:00
Orbit: 846 x 856 km, 70.9° (Epoch: 29 April)

Date Brightness Start Highest point End Pass type
(mag) Time Alt. Az. Time Alt. Az. Time Alt. Az.
30 Apr 2.9 01:09:12 42° SSE 01:10:46 54° ESE 01:16:21 10° NE visible
30 Apr 3.7 02:51:11 17° WSW 02:55:16 40° NW 03:00:39 10° NNE visible
30 Apr 4.9 04:37:25 10° WNW 04:41:10 17° NNW 04:44:55 10° NNE visible
30 Apr 4.8 23:14:57 11° E 23:15:32 11° E 23:16:48 10° E visible
01 May 2.9 00:56:55 41° SSE 00:58:33 54° ESE 01:04:07 10° NE visible
01 May 3.7 02:38:54 16° WSW 02:43:03 40° NW 02:48:26 10° NNE visible
01 May 5.0 04:25:12 10° WNW 04:28:57 17° NNW 04:32:43 10° NNE visible
01 May 4.7 23:02:37 10° E 23:03:19 11° E 23:04:36 10° E visible
02 May 2.9 00:44:35 40° SSE 00:46:20 55° ESE 00:51:55 10° NE visible
02 May 3.8 02:26:34 16° WSW 02:30:50 40° NW 02:36:13 10° NNE visible
02 May 5.0 04:12:59 10° WNW 04:16:44 17° NNW 04:20:30 10° NNE visible
02 May 4.7 22:50:14 10° ESE 22:51:06 11° E 22:52:22 10° E visible
03 May 2.9 00:32:12 38° SSE 00:34:07 55° ESE 00:39:42 10° NE visible
03 May 3.8 02:14:10 15° WSW 02:18:37 40° NW 02:24:00 10° NNE visible
03 May 5.0 04:00:46 10° WNW 04:04:31 17° NNW 04:08:16 10° NNE visible
03 May 4.7 22:37:48 10° ESE 22:38:54 11° E 22:40:10 10° E visible
04 May 2.9 00:19:46 35° S 00:21:54 55° ESE 00:27:28 10° NE visible
04 May 3.8 02:01:44 13° WSW 02:06:24 40° NW 02:11:47 10° NNE visible
04 May 5.1 03:48:33 10° WNW 03:52:18 17° NNW 03:56:03 10° NNE visible
04 May 4.7 22:25:25 10° ESE 22:26:41 11° E 22:27:57 10° E visible
05 May 2.9 00:07:16 32° S 00:09:41 55° ESE 00:15:16 10° NE visible
05 May 3.8 01:49:14 12° WSW 01:54:11 40° NW 01:59:35 10° NNE visible
05 May 5.1 03:36:20 10° WNW 03:40:05 17° NNW 03:43:50 10° NNE visible
05 May 4.6 22:13:12 10° ESE 22:14:27 11° E 22:15:44 10° E visible
05 May 2.9 23:54:41 29° S 23:57:28 55° ESE 00:03:02 10° NE visible
06 May 3.9 01:36:39 10° WSW 01:41:58 40° NW 01:47:21 10° NNE visible
06 May 5.1 03:24:07 10° WNW 03:27:52 17° NNW 03:31:37 10° NNE visible
06 May 4.6 22:00:59 10° ESE 22:02:15 11° E 22:03:30 10° E visible
06 May 2.9 23:42:01 25° S 23:45:15 55° ESE 23:50:50 10° NE visible
07 May 3.9 01:24:23 10° WSW 01:29:45 40° NW 01:35:08 10° NNE visible
07 May 5.2 03:11:55 10° WNW 03:15:39 17° NNW 03:19:24 10° NNE visible
07 May 4.6 21:48:46 10° ESE 21:50:02 11° E 21:51:17 10° E visible
07 May 2.9 23:29:13 20° S 23:33:02 55° ESE 23:38:37 10° NE visible
08 May 3.9 01:12:09 10° WSW 01:17:32 40° NW 01:22:55 10° NNE visible
08 May 5.2 02:59:41 10° WNW 03:03:26 17° NNW 03:07:11 10° NNE visible
08 May 2.9 23:16:17 15° S 23:20:49 55° ESE 23:26:23 10° NE visible
09 May 3.9 00:59:56 10° WSW 01:05:19 40° NW 01:10:42 10° NNE visible
09 May 5.2 02:47:28 10° WNW 02:51:13 17° NNW 02:54:58 10° NNE visible
09 May 2.9 23:03:07 10° S 23:08:36 55° ESE 23:14:10 10° NE visible
